Regional Weather Roundup
Issued by NWS

Home | Current Version | Previous Version | Graphics & Text | Print | Product List | Glossary On
Versions: 1 2 3 4 5 6 7 8 9 10 11 12 13 14 15 16 17 18 19 20 21 22 23 24 25 26 27 28 29 30 31 32 33 34 35 36 37 38 39 40 41 42 43 44 45 46 47 48 49 50
000
ASUS44 KMEG 201610
RWRTN
TENNESSEE HOURLY STATE WEATHER ROUNDUP
NATIONAL WEATHER SERVICE MEMPHIS TN
1100 AM CDT FRI OCT 20 2017

TNZ002-004-019-021-049-052-054-088>092-201700-
WEST TENNESSEE

CITY           SKY/WX    TMP DP  RH WIND       PRES   REMARKS
MEMPHIS INTL   PTSUNNY   72  55  55 SE9       30.24F
NWS MEMPHIS      N/A     71 N/A N/A MISG        N/A
JACKSON        SUNNY     66  54  65 CALM      30.27F
SOMERVILLE     SUNNY     70  55  60 SE6       30.25F
COVINGTON      SUNNY     70  55  60 S7        30.26F
UNION CITY     SUNNY     66  54  63 VRB6      30.25F
BOLIVAR        SUNNY     66  54  63 SE8       30.26F
PARIS          SUNNY     68  54  60 SE5       30.27F
HUNTINGDON     SUNNY     66  54  63 CALM      30.27F
LEXINGTON      SUNNY     66  52  59 CALM      30.28F
SELMER         SUNNY     66  54  63 VRB5      30.27F
SAVANNAH       SUNNY     70  55  60 VRB5      30.27F
$$

TNZ008-025-027-028-033-062-065-066-201700-
NORTH MIDDLE TENNESSEE

CITY           SKY/WX    TMP DP  RH WIND       PRES   REMARKS
NASHVILLE      PTSUNNY   68  49  50 CALM      30.31F
PORTLAND       SUNNY     70  50  49 CALM      30.29F
CLARKSVILLE    SUNNY     66  51  58 SW5       30.29F
SMYRNA         SUNNY     66  50  56 CALM      30.31F
COOKEVILLE     SUNNY     68  50  52 CALM      30.30F
GALLATIN       SUNNY     66  50  55 CALM      30.33S
CROSSVILLE     SUNNY     68  47  46 E7        30.33F
$$

TNZ061-075-076-078-094-096-097-201700-
SOUTH MIDDLE TENNESSEE

CITY           SKY/WX    TMP DP  RH WIND       PRES   REMARKS
FAYETTEVILLE   SUNNY     66  50  55 NE5       30.30S
TULLAHOMA      SUNNY     66  45  45 CALM      30.31F
WINCHESTER     SUNNY     70  46  43 CALM        N/A
COLUMBIA       SUNNY     66  54  63 CALM      30.28F
SHELBYVILLE    SUNNY     68  52  56 CALM      30.30F
$$

TNZ017-018-042-046-047-201700-
NORTHEAST TENNESSEE

CITY           SKY/WX    TMP DP  RH WIND       PRES   REMARKS
TRI CITIES     SUNNY     64  49  57 CALM      30.35F
ELIZABETHTON   SUNNY     64  45  48 CALM      30.34F
$$

TNZ012-013-036-069-073-074-201700-
CENTRAL EAST TENNESSEE

CITY           SKY/WX    TMP DP  RH WIND       PRES   REMARKS
KNOXVILLE      MOSUNNY   64  53  67 NE8       30.31F
OAK RIDGE      SUNNY     62  53  72 CALM      30.34F
DOWNTOWN KNOXV SUNNY     64  54  68 CALM      30.33F
GATLINBURG     SUNNY     64  43  45 CALM      30.32F
MORRISTOWN     SUNNY     64  50  59 CALM      30.33F
JACKSBORO      SUNNY     64  50  59 CALM      30.36F
$$

TNZ083-085-099-201700-
SOUTHEAST TENNESSEE

CITY           SKY/WX    TMP DP  RH WIND       PRES   REMARKS
CHATTANOOGA    MOSUNNY   65  50  58 NE5       30.31F
DAYTON         SUNNY     64  57  77 VRB3      30.31F
$$

SKY/WX REPORTED AS FAIR MEANS FEW OR NO CLOUDS BELOW
12 THOUSAND FEET.





USA.gov is the U.S. government's official web portal to all federal, state and local government web resources and services.